WetterOnline ( https://www.wetteronline.de )

Wetter aktuell Ixelles/Elsene

Aktuelles Wetter: Beauvechain (127m)

6-stündlich | Neueste Meldungen
Ortszeit Temperatur Wetter
Mo, 22.07. 20:00 21.8° C -
Mo, 22.07. 14:00 21.7° C leicht bewölkt
Mo, 22.07. 8:00 16.4° C fast wolkenlos
Mo, 22.07. 2:00 18.2° C bewölkt
So, 21.07. 20:00 22.6° C bewölkt
So, 21.07. 14:00 21.9° C wolkig
So, 21.07. 8:00 19.7° C leicht bewölkt
Sa, 20.07. 2:00 21.1° C -
Ortszeit Temperatur Wetter
Mo, 22.07. 21:00 21.2° C fast wolkenlos
Mo, 22.07. 20:00 21.8° C -
Mo, 22.07. 19:00 22.2° C fast wolkenlos
Mo, 22.07. 18:00 23.1° C leicht bewölkt
Mo, 22.07. 17:00 22.8° C fast wolkenlos
Mo, 22.07. 16:00 22.1° C fast wolkenlos
Mo, 22.07. 15:00 21.1° C leicht bewölkt
Ortszeit Relative Feuchte Sichtweite
Mo, 22.07. 20:00 64% >70 km
Mo, 22.07. 14:00 57% 20 km
Mo, 22.07. 8:00 85% 20 km
Mo, 22.07. 2:00 89% 45 km
So, 21.07. 20:00 71% >70 km
So, 21.07. 14:00 79% 15 km
So, 21.07. 8:00 87% >70 km
Sa, 20.07. 2:00 67% >70 km
Ortszeit Relative Feuchte Sichtweite
Mo, 22.07. 21:00 66% >70 km
Mo, 22.07. 20:00 64% >70 km
Mo, 22.07. 19:00 60% >70 km
Mo, 22.07. 18:00 57% >70 km
Mo, 22.07. 17:00 54% 20 km
Mo, 22.07. 16:00 56% 20 km
Mo, 22.07. 15:00 57% 20 km
Ortszeit Niederschlagsmenge Niederschlagsart
Mo, 22.07. 20:00 0.0 l/m2 in 12 Std. -
Mo, 22.07. 14:00 0.0 l/m2 in 6 Std. -
Mo, 22.07. 8:00 0.1 l/m2 in 12 Std. -
Mo, 22.07. 2:00 0.1 l/m2 in 6 Std. Regen
So, 21.07. 20:00 0.1 l/m2 in 12 Std. Regen
So, 21.07. 14:00 0.1 l/m2 in 6 Std. -
So, 21.07. 8:00 0.1 l/m2 in 12 Std. Regen
Sa, 20.07. 2:00 0.0 l/m2 in 6 Std. -
Ortszeit Niederschlagsmenge Niederschlagsart
Mo, 22.07. 21:00 keine Meldung -
Mo, 22.07. 20:00 keine Meldung -
Mo, 22.07. 19:00 keine Meldung -
Mo, 22.07. 18:00 keine Meldung -
Mo, 22.07. 17:00 keine Meldung -
Mo, 22.07. 16:00 keine Meldung -
Mo, 22.07. 15:00 keine Meldung -
Ortszeit Stärke Spitze Richtung
km/h Bft. km/h Grad Sektor
Mo, 22.07. 20:00 14 3 29 210° SW
Mo, 22.07. 14:00 14 3 29 230° SW
Mo, 22.07. 8:00 18 3 25 240° SW
Mo, 22.07. 2:00 7 2 25 310° NW
So, 21.07. 20:00 7 2 14 290° W
So, 21.07. 14:00 11 2 22 280° W
So, 21.07. 8:00 14 3 40 210° SW
Sa, 20.07. 2:00 4 1 14 uml. uml.
Ortszeit Stärke Spitze Richtung
km/h Bft. km/h Grad Sektor
Mo, 22.07. 21:00 14 3 22 200° S
Mo, 22.07. 20:00 14 3 29 210° SW
Mo, 22.07. 19:00 18 3 25 230° SW
Mo, 22.07. 18:00 14 3 0 220° SW
Mo, 22.07. 17:00 18 3 29 230° SW
Mo, 22.07. 16:00 14 3 25 220° SW
Mo, 22.07. 15:00 14 3 25 240° SW
Ortszeit Untergrenze Bedeckung Gattung
total tief tief mittel hoch
Mo, 22.07. 20:00 - - - - - -
Mo, 22.07. 14:00 1140 m 2/8 2/8 Cu - Ci
Mo, 22.07. 8:00 450 m 2/8 2/8 Cu - Ci
Mo, 22.07. 2:00 1080 m - 7/8 - - -
So, 21.07. 20:00 930 m - 7/8 - - -
So, 21.07. 14:00 540 m 6/8 1/8 Cu Ac Ci
So, 21.07. 8:00 2100 m - 3/8 - - -
Sa, 20.07. 2:00 - - - - - -
Ortszeit Bedeckungsgrad in Achtel und Wolkenuntergrenze
Mo, 22.07. 21:00 1(1800m)
Mo, 22.07. 20:00 -
Mo, 22.07. 19:00 1(1230m)
Mo, 22.07. 18:00 3(1230m)
Mo, 22.07. 17:00 1(1350m) 3(7200m)
Mo, 22.07. 16:00 1(1320m) 3(7200m)
Mo, 22.07. 15:00 2(1140m)
Ortszeit Luftdruck NN (hPa) Tendenz (hPa in 3 Std.)
Mo, 22.07. 20:00 1018 - 0,1
Mo, 22.07. 14:00 1018 + 0,5
Mo, 22.07. 8:00 1017 + 1,0
Mo, 22.07. 2:00 1015 + 1,6
So, 21.07. 20:00 1011 + 0,7
So, 21.07. 14:00 1010 + 0,8
So, 21.07. 8:00 1007 + 1,3
Sa, 20.07. 2:00 1014 - 1,3
Ortszeit Luftdruck NN (hPa) Tendenz (hPa in 3 Std.)
Mo, 22.07. 21:00 1018 + 0,1
Mo, 22.07. 20:00 1018 - 0,1
Mo, 22.07. 19:00 1017 - 0,7
Mo, 22.07. 18:00 1018 - 0,7
Mo, 22.07. 17:00 1018 - 0,3
Mo, 22.07. 16:00 1018 0,0
Mo, 22.07. 15:00 1018 + 0,3
Ortszeit Schneehöhe (cm)
Mo, 22.07. 20:00 -
Mo, 22.07. 14:00 -
Mo, 22.07. 8:00 -
Mo, 22.07. 2:00 -
So, 21.07. 20:00 -
So, 21.07. 14:00 -
So, 21.07. 8:00 -
Sa, 20.07. 2:00 -
Ortszeit Schneehöhe (cm)
Mo, 22.07. 21:00 -
Mo, 22.07. 20:00 -
Mo, 22.07. 19:00 -
Mo, 22.07. 18:00 -
Mo, 22.07. 17:00 -
Mo, 22.07. 16:00 -
Mo, 22.07. 15:00 -
Link zu dieser Seite / Seite empfehlen

Das Wetter in ...